Terminal Aerodrome Forecast
Issued by NWS Bismarck, ND

Home | Current Version | Previous Version | Text Only | Print | Product List | Glossary Off
Versions: 1 2 3 4 5 6 7 8 9 10 11 12 13 14 15

000
FTUS43 KBIS 011720
TAFISN
TAF
KISN 011720Z 0118/0218 24014KT P6SM SCT200
     FM020200 23007KT P6SM SCT150
     FM021600 27014KT P6SM SCT120=

USA.gov is the U.S. government's official web portal to all federal, state and local government web resources and services.